This demonstration page uses our WeatherBlox Daily Observations layout. Learn more.

Left ArrowRight Arrow

39.29038, -76.61219

Hourly Observations for August 7, 2020

Temp ( °F °C ) Dew Point ( °F °C ) Humidity (%) Winds ( mph kmh ) Pressure ( in mb ) Visibility ( mi km ) Precip ( " mm )
12:41 am 00:41 Cloudy 76 24.4 70 21.1 82 82 NW 3 6 30.06 1018 10 16 0.00 0.00
12:54 am 00:54 Cloudy 76 24.4 71 21.7 85 85 Calm 30.05 1018 10 16 0.00 0.00
1:54 am 01:54 Cloudy 75 23.9 71 21.7 88 88 NE 3 6 30.05 1018 10 16 0.00 0.00
2:54 am 02:54 Mostly Cloudy 75 23.9 70 21.1 84 84 Calm 30.05 1018 10 16 0.00 0.00
3:54 am 03:54 Cloudy 74 23.3 70 21.1 88 88 Calm 30.05 1018 10 16 0.00 0.00
4:54 am 04:54 Mostly Cloudy 74 23.3 71 21.7 91 91 NE 3 6 30.04 1017 10 16 0.00 0.00
5:54 am 05:54 Mostly Cloudy 72 22.2 70 21.1 94 94 Calm 30.06 1018 10 16 0.00 0.00
6:01 am 06:01 Mostly Cloudy 74 23.3 71 21.7 91 91 Calm 30.06 1018 10 16 0.00 0.00
6:28 am 06:28 Mostly Cloudy 72 22.2 69 20.6 91 91 Calm 30.07 1018 10 16 0.00 0.00
6:37 am 06:37 Cloudy 73 22.8 70 21.1 90 90 Calm 30.07 1018 10 16 0.00 0.00
6:54 am 06:54 Mostly Cloudy 73 22.8 70 21.1 90 90 Calm 30.07 1018 10 16 0.00 0.00
7:44 am 07:44 Mostly Cloudy with Fog 76 24.4 71 21.7 85 85 Calm 30.08 1019 7 11 0.00 0.00
7:54 am 07:54 Mostly Cloudy with Fog 77 25 71 21.7 82 82 NNE 3 6 30.08 1019 7 11 0.00 0.00
8:38 am 08:38 Mostly Cloudy 78 25.6 71 21.7 79 79 ENE 3 6 30.09 1019 9 14 0.00 0.00
8:54 am 08:54 Mostly Cloudy 78 25.6 70 21.1 76 76 E 3 6 30.09 1019 9 14 0.00 0.00
9:43 am 09:43 Mostly Cloudy 81 27.2 71 21.7 72 72 Calm 30.09 1019 10 16 0.00 0.00
9:54 am 09:54 Mostly Cloudy 81 27.2 70 21.1 69 69 E 5 7 30.09 1019 10 16 0.00 0.00
10:54 am 10:54 Mostly Cloudy 82 27.8 70 21.1 67 67 SSW 3 6 30.09 1019 10 16 0.00 0.00
11:01 am 11:01 Mostly Cloudy 82 27.8 69 20.6 65 65 VRB 5 7 30.08 1019 10 16 0.00 0.00
11:48 am 11:48 Mostly Cloudy 82 28 70 21 66 66 VRB 3 6 30.08 1019 10 16 0.00 0.00
11:54 am 11:54 Mostly Cloudy 84 28.9 69 20.6 61 61 S 5 7 30.08 1019 10 16 0.00 0.00
12:54 pm 12:54 Mostly Cloudy 84 28.9 70 21.1 63 63 VRB 7 11 30.07 1018 10 16 0.00 0.00
1:54 pm 13:54 Mostly Cloudy 84 28.9 71 21.7 65 65 SSE 8 13 30.06 1018 10 16 0.00 0.00
2:54 pm 14:54 Mostly Cloudy 85 29.4 72 22.2 65 65 SE 7 11 30.05 1018 10 16 0.00 0.00
3:54 pm 15:54 Mostly Cloudy 85 29.4 71 21.7 63 63 VRB 5 7 30.02 1017 10 16 0.00 0.00
4:54 pm 16:54 Mostly Cloudy 86 30 72 22.2 63 63 SSE 5 7 30.01 1016 10 16 0.00 0.00
5:54 pm 17:54 Mostly Cloudy 84 28.9 72 22.2 67 67 SSE 8 13 30.01 1016 10 16 0.00 0.00
6:45 pm 18:45 Mostly Cloudy with Thunderstorms 82 27.8 73 22.8 74 74 SSE 8 13 30.01 1016 7 11 0.00 0.00
6:54 pm 18:54 Mostly Cloudy with Thunderstorms 82 27.8 73 22.8 74 74 WNW 6 9 30.01 1016 7 11 0.00 0.00
7:09 pm 19:09 Mostly Cloudy with Thunderstorms 78 25.6 71 21.7 79 79 N 10 17 30.02 1017 9 14 0.00 0.00
7:42 pm 19:42 Mostly Cloudy with Thunderstorms 75 23.9 70 21.1 84 84 NE 9 15 30.05 1018 10 16 0.00 0.00
7:54 pm 19:54 Mostly Cloudy with Thunderstorms 74 23.3 70 21.1 88 88 NE 5 7 30.06 1018 6 10 0.05 1.27
8:39 pm 20:39 Cloudy with Thunderstorms 72 22.2 68 20 87 87 ENE 9 15 30.07 1018 9 14 0.05 1.27
8:54 pm 20:54 Cloudy with Thunderstorms 72 22.2 69 20.6 91 91 NNE 9 15 30.07 1018 8 13 0.11 2.79
9:23 pm 21:23 Cloudy with Light Rain 72 22.2 69 20.6 91 91 NE 10 17 30.09 1019 10 16 0.08 2.03
9:32 pm 21:32 Cloudy with Light Rain 72 22.2 69 20.6 91 91 NNE 8 13 30.09 1019 10 16 0.09 2.29
9:54 pm 21:54 Cloudy with Light Rain 72 22.2 68 20 87 87 E 7 11 30.09 1019 10 16 0.09 2.29
10:25 pm 22:25 Cloudy with Light Rain 71 21.7 68 20 90 90 E 7 11 30.10 1019 10 16 0.00 0.00
10:54 pm 22:54 Cloudy 71 21.7 69 20.6 94 94 Calm 30.11 1020 10 16 0.00 0.00
11:54 pm 23:54 Mostly Cloudy 71 21.7 68 20 90 90 WSW 3 6 30.11 1020 10 16 0.00 0.00

Powered by AerisWeather